Regional Weather Roundup
Issued by NWS Charleston, SC

Current Version | Previous Version | Graphics & Text | Print | Product List | Glossary On
Versions: 1 2 3 4 5 6 7 8 9 10 11 12 13 14 15 16 17 18 19 20 21 22 23 24 25 26 27 28 29 30 31 32 33 34 35 36 37 38 39 40 41 42 43 44 45 46 47 48 49 50
000
ASUS42 KCHS 202011
RWRCHS

REGIONAL WEATHER ROUNDUP
NATIONAL WEATHER SERVICE CHARLESTON SC
400 PM EDT MON APR 20 2015

NOTE: "FAIR" INDICATES FEW OR NO CLOUDS BELOW 12,000 FEET WITH NO
SIGNIFICANT WEATHER AND/OR OBSTRUCTIONS TO VISIBILITY.

NOT ALL STATIONS ARE QUALITY CONTROLLED BY THE NATIONAL
WEATHER SERVICE. USE DATA WITH CAUTION...ESPECIALLY
DEWPOINT OBSERVATIONS.

SCZ027-030-031-034>040-042>050-202100-
...SOUTHEAST SOUTH CAROLINA...

CITY           SKY/WX    TMP DP  RH WIND       PRES   REMARKS
N CHARLESTON   CLOUDY    74  64  71 SW13      29.78F
WATERFRONT PRK   N/A     70 N/A N/A S13         N/A
MOUNT PLEASANT FAIR      73  66  78 CALM      29.78F
PINOPOLIS      NOT AVBL
MONCKS CORNER  FAIR      75  64  69 S6        29.76F
SUMMERVILLE    FAIR      72  66  83 S7        29.78F
BEAUFORT MCAS  CLOUDY    73  65  75 SW8       29.79F
BEAUFORT ARPT  FAIR      72  68  88 CALM      29.79F
HILTON HEAD IS PTSUNNY   73  66  78 S7        29.80F
WALTERBORO     CLOUDY    72  64  78 S10       29.78F
ALLENDALE      FAIR      73  66  78 S7        29.76S

...SOUTHERN MIDLANDS AND PEE DEE...

CITY           SKY/WX    TMP DP  RH WIND       PRES   REMARKS
GEORGETOWN     NOT AVBL
KINGSTREE      NOT AVBL
ORANGEBURG     CLOUDY    73  64  73 SW10      29.75F
BARNWELL       FAIR      73  66  78 SW9G16    29.75F
AIKEN          MOCLDY    70  61  73 SW14      29.76F
MANNING        FAIR      72  63  73 S6        29.74F
COLUMBIA       CLOUDY    73  63  70 SW13G23   29.71F
SUMTER         CLOUDY    73  64  75 S15       29.70F
FLORENCE       CLOUDY    74  63  68 SW10G21   29.72F
MYRTLE BEACH   SUNNY     72  64  78 S14       29.78F
N MYRTLE BEACH CLOUDY    69  64  84 S16       29.75F

$$

GAZ063-065-086>088-099>101-113>116-118-119-134>141-150-202100-
...SOUTHEAST GEORGIA...

CITY           SKY/WX    TMP DP  RH WIND       PRES   REMARKS
SAVANNAH ARPT  CLOUDY    73  65  75 SW12      29.80F
HUNTER AAF     CLOUDY    74  69  86 SW7       29.79F
FORT STEWART   PTSUNNY   73  64  73 SW9       29.79F
STATESBORO       N/A     72  67  85 S8        29.78F
SYLVANIA       CLOUDY    71  68  89 S6        29.78F
CLAXTON        MOCLDY    72  68  88 W5        29.79F

...CSRA...CENTRAL AND FAR SOUTHEAST GEORGIA...

CITY           SKY/WX    TMP DP  RH WIND       PRES   REMARKS
THOMSON        CLOUDY    74  68  83 SW9G20    29.77F
AUGUSTA-BUSH   CLOUDY    72  66  81 SW13      29.73F
AUGUSTA-DANIEL CLOUDY    72  64  76 S16G24    29.74F
SWAINSBORO     NOT AVBL
VIDALIA        CLOUDY    72  64  78 SW9       29.79F
EASTMAN        FAIR      72  69  92 SW8       29.82F
HAZLEHURST     FAIR      73  62  70 S6        29.78F
ALMA           CLOUDY    71  62  73 S9        29.80F
WAYCROSS       LGT RAIN  74  63  66 SW14      29.82F
JESUP          LGT RAIN  75  70  83 SW5       29.84S
BAXLEY         CLOUDY    73  64  73 S9        29.79F
BRUNSWICK      CLOUDY    75  54  46 SW15G21   29.84F
SAINT SIMONS   LGT RAIN  74  54  49 SW21G32   29.83F

$$

SCZ027-028-034-036>038-045-046-048>050-GAZ119-141-202100-
...LAKE AND SUPPLEMENTAL COASTAL OBSERVATIONS...

STATION/POSITION TIME  TEMP    WIND        PRES    WAVE   SWELL
                       AIR SEA DIR/SP/G            HT/PER HT/PER/DIR
                 (UTC) (F)     (DEG/KT/KT) (MB)    (FT/S) (FT/S/D)
UPR LAKE MARION  NOT AVBL
WINYAH BAY       NOT AVBL
LAKE MURRAY      1900   71     190/ 11/ 15 1006.1F
ACE BASIN NERRS  NOT AVBL
FORT PULASKI     1900   72 72  230/  8/ 15 1010.4F
SAPELO ISLAND    1900   74     210/ 10     1011.0S

$$

ANZ835-935-AMZ111-154-330-350-352-354-370-450-454-472-202100-
...C-MAN AND BUOY OBSERVATIONS...

STATION/POSITION TIME  TEMP    WIND        PRES    WAVE   SWELL
                       AIR SEA DIR/SP/G            HT/PER HT/PER/DIR
                 (UTC) (F)     (DEG/KT/KT) (MB)    (FT/S) (FT/S/D)
BUOY 41004       1950   71 74  210/ 16/ 19 1008.5F   4/ 5   2/10
BUOY 41008       1950   70 69  190/ 12/ 14 1010.4F   2/12   2/100/12
FOLLY BEACH CMAN 1900   69     220/ 14/ 17 1009.6F
CAPERS NEARSHORE NOT AVBL
FRIPP NEARSHORE  NOT AVBL


STATION/POSITION TIME  TEMP    WIND        PRES    WAVE   SWELL
                       AIR SEA DIR/SP/G            HT/PER HT/PER/DIR
                 (UTC) (F)     (DEG/KT/KT) (MB)    (FT/S) (FT/S/D)
5E ST. MARYS GA  1921      71                N/A     2/ 9   2/110/12
FRYING PAN BUOY  1950   72 73  220/ 14/ 16 1009.2F   4/ 6   2/120/ 9
BUOY 41025       1950   72 73  240/ 21/ 25 1008.4R   6/ 8   3/100/ 8
CAPE LOOKOUT NC  1900   71     220/ 14/ 17 1008.7S
BUOY 41002       1950   73 73  220/ 14/ 16 1011.9F   4/15   2/ 50/15
BUOY 41010       1920   79 79  170/  8/ 14 1011.6F
ST AUGUSTINE FL  2000   78 66  320/ 18/ 23 1010.9F


$$


USA.gov is the U.S. government's official web portal to all federal, state and local government web resources and services.